Location: Gugi
(45.4667°N, 11.1000°E)
Time: 07:48:40
(UTC+00:00)

Cosmos 2369 - Pass Details

Date: 17 November 2019
Orbit: 838 x 858 km, 71.0° (Epoch: 13 December)

Event Time Altitude Azimuth Distance (km) Brightness Sun altitude
Rises 16:45:31 0° 189° (S) 3,382 7.2 -10.9°
Reaches altitude 10° 16:48:00 10° 185° (S) 2,454 6.4 -11.3°
Maximum altitude 16:53:27 54° 109° (ESE) 1,028 3.9 -12.2°
Drops below altitude 10° 16:58:59 10° 34° (NE) 2,484 5.7 -13.2°
Enters shadow 16:59:19 - 34° (NNE) 2,607 5.8 -13.2°
